[[{"header":{"parameterUnit":"m.s-1","parameterCategory":1,"la1":30.2991,"la2":30.254,"lo1":-89.0895,"lo2":-89.0444,"dy":0.0017,"dx":0.0017,"nx":28,"ny":28,"refTime":"2025-06-19T21:00:00:Z","depth":0,"parameterNumber":2,"parameterNumberName":"U-component_of_WINDS"},"data":[0,0,0,0,0,0,0,0,0,0,0,0,0,0,0,0,0,0,0,0,0,0,0,0,0,0,0,0,0,0,0,0,0,0,0,0,0,0,0,0,0,0,0,0,0,0,0,0,0,0,0,0,0,0,0,0,0,0,3.0012,3.0014,0,3.0165,3.0167,3.0169,3.018,3.0178,3.0177,3.0175,3.0337,3.0343,3.0349,0,0,0,0,0,0,0,0,0,0,0,0,0,2.9734,2.9739,3.0012,3.0014,3.0016,3.0165,3.0167,3.0169,3.018,3.0178,3.0176,3.0174,3.0335,3.0342,3.0349,0,0,0,0,0,0,0,0,0,0,0,0,0,2.9868,2.9741,3.0011,3.0039,3.0043,3.0164,3.0167,3.017,3.0181,3.0178,3.0176,3.0173,3.0333,3.0341,3.035,3.0456,0,0,3.0377,3.0381,0,0,0,0,0,0,0,0,2.986,2.9878,3.0033,3.0037,3.0042,3.0151,3.0128,3.0266,3.0182,3.0129,3.0175,3.0172,3.0277,3.0291,3.0325,3.0463,3.047,3.0378,3.0383,3.0387,3.039,0,0,0,0,0,0,0,2.9851,2.9872,3.0073,3.0035,3.0041,3.0046,3.0062,3.0155,3.0216,3.0133,3.0134,3.0152,3.0279,3.0317,3.0329,3.0473,3.0378,3.0386,3.0391,3.0394,3.0706,3.0709,0,0,0,0,0,0,2.9836,2.9864,3.0068,3.0077,2.9943,3.0053,3.0071,3.0119,3.0215,3.0227,3.0154,3.0152,3.0303,3.0319,3.0335,3.0465,3.0387,3.0395,3.04,3.0703,3.0707,3.071,0,0,0,0,0,0,2.983,2.9854,3.0062,2.9971,2.9998,3.006,3.0114,3.0123,3.016,3.023,3.0242,3.018,3.0301,3.0322,3.0425,3.047,3.0399,3.0407,3.0699,3.0704,3.0708,3.0725,0,0,0,0,0,0,2.9822,2.9852,2.9891,2.9972,3.0002,3.0148,3.0117,3.0128,3.0175,3.0173,3.0258,3.027,3.0301,3.0412,3.0434,3.0481,3.0414,3.0696,3.0702,3.0707,3.0721,3.0729,3.0737,0,0,0,0,0,2.9812,2.9891,2.9893,2.9917,3.0053,3.015,3.0168,3.0201,3.0178,3.0219,3.0265,3.0267,3.0462,3.0423,3.0447,3.0498,3.0693,3.07,3.0706,3.0717,3.0728,3.0737,0,0,0,0,0,0,2.9815,2.9902,2.9905,3.0012,3.0074,3.0152,3.0205,3.0211,3.0282,3.0278,3.0317,3.0337,3.0438,3.0479,3.0433,3.0606,3.0575,3.0587,3.0575,3.0586,3.0594,3.0581,3.0422,0,0,0,0,0,2.9828,2.9899,2.9971,3.0059,3.0089,3.0142,3.0185,3.0205,3.0271,3.0298,3.0351,3.0416,3.0492,3.0542,3.0615,3.0727,3.0746,3.0774,3.0783,3.0789,3.0798,3.0861,3.0874,3.0732,3.0732,3.0732,0,0,2.9856,2.9912,2.9955,3.0061,3.0111,3.0184,3.0164,3.0242,3.0297,3.0311,3.041,3.0452,3.0527,3.0635,3.0685,3.0672,3.0842,3.0797,3.0802,3.0808,3.0869,3.0883,3.0894,3.0736,3.0735,3.0735,0,0,2.9944,2.9994,3.0072,3.0122,3.0198,3.0232,3.0251,3.0329,3.0356,3.0456,3.0468,3.0535,3.0665,3.0719,3.0763,3.0872,3.0878,3.0896,3.0938,3.0998,3.1009,3.102,3.1058,3.1072,3.0905,3.0905,3.0906,0,2.997,3.0079,3.0112,3.019,3.0236,3.025,3.0331,3.0379,3.0475,3.0508,3.0492,3.0655,3.0707,3.0827,3.0854,3.089,3.0913,3.0886,3.1005,3.1015,3.1025,3.1063,3.1077,3.0907,3.0907,3.0907,3.0907,0,3.0107,3.0183,3.0237,3.0328,3.0381,3.046,3.0506,3.0556,3.0572,3.0609,3.0712,3.0775,3.0861,3.0892,3.0909,3.1015,3.1005,3.0996,3.0967,3.104,3.1076,3.109,3.0909,3.0909,3.0908,3.0908,0,0,3.02,3.0308,3.0327,3.0369,3.0453,3.0514,3.0594,3.0677,3.072,3.0787,3.0855,3.0965,3.0958,3.1008,3.1032,3.1085,3.1167,3.107,3.1073,3.1085,3.1288,3.1293,3.1309,3.1172,3.1175,3.1177,3.1282,0,3.0297,3.0438,3.047,3.0592,3.0662,3.0677,3.0748,3.0808,3.0845,3.0912,3.0954,3.1031,3.1016,3.1046,3.1099,3.1146,3.1208,3.1139,3.1237,3.124,3.1216,3.1328,3.1333,3.1429,3.1296,3.1298,3.13,0,3.0429,3.0496,3.0624,3.07,3.0731,3.0793,3.0872,3.0935,3.1005,3.1028,3.1085,3.1103,3.1188,3.1155,3.1275,3.1227,3.1269,3.1298,3.1303,3.1312,3.1273,3.1339,3.146,3.1474,3.1323,3.1321,3.1319,0,3.0483,3.0606,3.0699,3.0734,3.0825,3.0868,3.0908,3.0975,3.1023,3.1093,3.1125,3.1205,3.1249,3.1311,3.1351,3.1323,3.1467,3.1437,3.149,3.1489,3.1518,3.1515,3.1646,3.1548,3.1547,3.1547,3.1547,0,3.0587,3.0665,3.0724,3.0781,3.0869,3.0906,3.0993,3.1034,3.1093,3.1159,3.1179,3.1241,3.129,3.136,3.1392,3.1486,3.1506,3.1528,3.1535,3.1525,3.1522,3.1552,3.1546,3.1551,3.155,3.1549,3.1549,0,3.0662,3.0705,3.0806,3.0883,3.0905,3.0966,3.1033,3.109,3.1127,3.1211,3.1233,3.1293,3.1376,3.1422,3.1527,3.1548,3.1653,3.1657,3.1628,3.1631,3.168,3.1674,3.1834,3.1857,3.1744,3.1745,3.1746,0,3.0724,3.0784,3.0867,3.0912,3.0952,3.1025,3.1073,3.1113,3.1164,3.1248,3.1295,3.1378,3.1447,3.1579,3.1633,3.1713,3.1719,3.177,3.1732,3.172,3.1719,3.1714,3.172,3.1776,3.1777,3.1778,3.1778,0,3.0831,3.0849,3.0918,3.0994,3.1052,3.1114,3.1177,3.1213,3.1263,3.1319,3.1403,3.1456,3.1563,3.1645,3.173,3.1774,3.1785,3.179,3.1806,3.1796,3.1776,3.1787,3.1645,3.1786,3.1785,3.1785,3.1784,3.1784,3.0901,3.0955,3.1021,3.1098,3.1148,3.1206,3.1263,3.1307,3.1377,3.1465,3.1485,3.1574,3.1643,3.1758,3.1804,3.1875,3.1865,3.1889,3.1895,3.19,3.1901,3.1766,3.1891,3.1891,3.189,3.189,3.189,0,3.1008,3.1052,3.1121,3.1206,3.1267,3.1271,3.134,3.139,3.1467,3.153,3.1597,3.1694,3.1775,3.1835,3.1918,3.1964,3.1971,3.1984,3.198,3.199,3.1905,3.1882,3.1977,3.1977,3.1977,3.1977,3.1977,3.1976,3.107,3.1161,3.1187,3.1304,3.1348,3.1433,3.1472,3.1526,3.1576,3.1683,3.1749,3.1787,3.185,3.1938,3.2013,3.2029,3.2058,3.207,3.2087,3.2006,3.1996,3.1987,3.1966,3.2077,3.2077,3.2166,3.2167,3.2167]},{"header":{"parameterUnit":"m.s-1","parameterCategory":1,"la1":30.2991,"la2":30.254,"lo1":-89.0895,"lo2":-89.0444,"dy":0.0017,"dx":0.0017,"nx":28,"ny":28,"refTime":"2025-06-19T21:00:00:Z","depth":0,"parameterNumber":3,"parameterNumberName":"V-component_of_WINDS"},"data":[0,0,0,0,0,0,0,0,0,0,0,0,0,0,0,0,0,0,0,0,0,0,0,0,0,0,0,0,0,0,0,0,0,0,0,0,0,0,0,0,0,0,0,0,0,0,0,0,0,0,0,0,0,0,0,0,0,0,1.6124,1.6126,0,1.6295,1.6297,1.6299,1.6343,1.6342,1.6341,1.634,1.6518,1.6523,1.6529,0,0,0,0,0,0,0,0,0,0,0,0,0,1.5838,1.5843,1.6124,1.6126,1.6128,1.6295,1.6297,1.63,1.6343,1.6342,1.634,1.6339,1.6516,1.6523,1.653,0,0,0,0,0,0,0,0,0,0,0,0,0,1.5981,1.5844,1.6124,1.617,1.6176,1.6295,1.6297,1.63,1.6343,1.6342,1.634,1.6338,1.6514,1.6522,1.6531,1.6617,0,0,1.6557,1.6561,0,0,0,0,0,0,0,0,1.5973,1.5991,1.6161,1.6167,1.6174,1.6296,1.6262,1.6406,1.6344,1.628,1.634,1.6338,1.6446,1.646,1.6495,1.6625,1.6632,1.6558,1.6563,1.6567,1.6569,0,0,0,0,0,0,0,1.5963,1.5984,1.6192,1.6163,1.6171,1.6183,1.6202,1.6289,1.637,1.6285,1.6289,1.6308,1.6449,1.6487,1.65,1.6635,1.6558,1.6565,1.6571,1.6574,1.6845,1.6847,0,0,0,0,0,0,1.5944,1.5976,1.6186,1.6197,1.6067,1.619,1.621,1.6258,1.6369,1.6384,1.6309,1.631,1.6473,1.649,1.6506,1.6615,1.6567,1.6575,1.658,1.6843,1.6845,1.6847,0,0,0,0,0,0,1.5938,1.5963,1.618,1.6087,1.6116,1.6196,1.625,1.6263,1.6301,1.6387,1.6402,1.6334,1.6472,1.6494,1.6589,1.6622,1.6579,1.6586,1.684,1.6843,1.6846,1.6832,0,0,0,0,0,0,1.5929,1.596,1.5993,1.6088,1.6121,1.6258,1.6252,1.6267,1.6315,1.6317,1.6414,1.6428,1.6473,1.6576,1.6597,1.6633,1.6593,1.6838,1.6842,1.6845,1.683,1.6834,1.6838,0,0,0,0,0,1.5919,1.5982,1.5994,1.6019,1.6163,1.626,1.6279,1.6328,1.6318,1.6352,1.6407,1.6425,1.6614,1.6585,1.661,1.6648,1.6836,1.6841,1.6845,1.6828,1.6833,1.6838,0,0,0,0,0,0,1.589,1.5996,1.601,1.6106,1.6173,1.6267,1.6312,1.6332,1.6404,1.6403,1.6462,1.6484,1.6574,1.6621,1.6586,1.6738,1.6725,1.6735,1.6704,1.671,1.6714,1.6701,1.66,0,0,0,0,0,1.5895,1.5964,1.6053,1.6129,1.6162,1.6231,1.6275,1.6307,1.6379,1.6409,1.6471,1.6542,1.6618,1.6666,1.674,1.6837,1.6859,1.6876,1.6879,1.6882,1.689,1.6946,1.6954,1.6862,1.6862,1.6862,0,0,1.5905,1.5972,1.6012,1.6124,1.6181,1.6252,1.6254,1.6329,1.6383,1.642,1.6513,1.6562,1.6645,1.6741,1.6786,1.6782,1.692,1.6888,1.689,1.6896,1.6951,1.696,1.6967,1.6865,1.6865,1.6864,0,0,1.5961,1.6018,1.6087,1.6144,1.6228,1.6274,1.629,1.6381,1.6415,1.6509,1.6538,1.6603,1.6732,1.679,1.6837,1.6914,1.6934,1.6937,1.6958,1.7011,1.7018,1.7025,1.7054,1.7063,1.6945,1.6945,1.6945,0,1.5964,1.6071,1.6121,1.6195,1.6244,1.628,1.6352,1.6404,1.6509,1.6543,1.6536,1.6699,1.6757,1.6868,1.6887,1.6923,1.6945,1.6927,1.7013,1.702,1.7027,1.7055,1.7066,1.6944,1.6944,1.6944,1.6944,0,1.6071,1.6145,1.6191,1.6291,1.6345,1.6417,1.6479,1.6529,1.6556,1.6602,1.6698,1.6769,1.6859,1.6887,1.6915,1.7002,1.6997,1.7001,1.699,1.7035,1.7062,1.7073,1.6944,1.6944,1.6944,1.6944,0,0,1.6113,1.6239,1.6256,1.6302,1.6398,1.6457,1.6531,1.6618,1.6659,1.673,1.6795,1.6903,1.6908,1.696,1.6995,1.7041,1.7099,1.704,1.7043,1.7049,1.7201,1.7197,1.7209,1.7112,1.7115,1.7116,1.7194,0,1.6182,1.6315,1.6362,1.6472,1.6542,1.6577,1.6642,1.6708,1.6754,1.682,1.6871,1.6947,1.6947,1.6979,1.7026,1.7082,1.7131,1.7077,1.7174,1.7177,1.7153,1.7223,1.722,1.7289,1.7205,1.7207,1.7208,0,1.6279,1.6351,1.6467,1.6555,1.6586,1.6644,1.6727,1.679,1.6867,1.6897,1.6955,1.6986,1.7067,1.705,1.7162,1.7124,1.7167,1.72,1.7204,1.7216,1.7195,1.7237,1.7313,1.7323,1.7225,1.7224,1.7223,0,1.6299,1.6425,1.6511,1.6549,1.6654,1.6694,1.6739,1.6814,1.6863,1.6937,1.697,1.7051,1.7097,1.716,1.7213,1.7195,1.732,1.7308,1.7348,1.7347,1.7373,1.7371,1.7457,1.7399,1.7399,1.7399,1.7399,0,1.637,1.6441,1.6522,1.6575,1.6655,1.6709,1.6787,1.6835,1.6901,1.6965,1.7001,1.706,1.7126,1.7195,1.7237,1.7323,1.7343,1.7371,1.7381,1.7368,1.7364,1.7397,1.7394,1.7402,1.7401,1.7401,1.74,0,1.6407,1.6463,1.656,1.6651,1.6676,1.6731,1.6809,1.6863,1.6909,1.699,1.7012,1.7086,1.7168,1.7227,1.7333,1.7361,1.7455,1.7465,1.7429,1.7434,1.7471,1.7467,1.7582,1.76,1.7529,1.753,1.753,0,1.6449,1.6503,1.66,1.6645,1.669,1.6762,1.6813,1.6868,1.6919,1.7011,1.7054,1.7138,1.7209,1.7338,1.7402,1.7484,1.7497,1.7531,1.7509,1.7494,1.7498,1.7494,1.75,1.7535,1.7535,1.7535,1.7536,0,1.6518,1.6543,1.6614,1.6694,1.6753,1.682,1.6887,1.6922,1.6989,1.7045,1.7129,1.7184,1.7292,1.7376,1.7464,1.7512,1.7536,1.7542,1.7556,1.7543,1.752,1.7534,1.7438,1.7539,1.7539,1.7539,1.7539,1.7538,1.6559,1.6609,1.6685,1.6763,1.6819,1.6881,1.6936,1.6989,1.706,1.7151,1.718,1.7267,1.7344,1.7464,1.7513,1.7583,1.7582,1.7601,1.7607,1.7611,1.761,1.7508,1.7599,1.7599,1.7599,1.7599,1.7599,0,1.663,1.668,1.6751,1.6844,1.6905,1.6921,1.6996,1.7046,1.7123,1.7191,1.726,1.7357,1.7438,1.7508,1.7593,1.7635,1.7648,1.7656,1.7654,1.7664,1.7607,1.7586,1.7644,1.7644,1.7644,1.7644,1.7644,1.7644,1.6674,1.6761,1.6795,1.691,1.6961,1.7046,1.7087,1.7145,1.72,1.7306,1.7374,1.7419,1.7488,1.7578,1.7654,1.7673,1.7703,1.7707,1.7729,1.7674,1.7668,1.7663,1.7645,1.7713,1.7713,1.7781,1.7781,1.7782]}]]